SCP
0 0 0 0 0 0 0 0 0 0 0 0 0 0 0 0 0 1 0 0 0 0 0 0 0 0 0 0 0 0 0 0 0 0 0 0 0 0 0 0 0 0 0
0 0 0 0 0 0 0 0 0 0 0 0 0 0 0 0 0 0 0 0 0 0 0 0 0 0 0 0 0 0 0 0 0 0 0 0 0 0 0 0 0 0 0
0 0 0 0 0 0 0 0 0 0 0 0 0 0 0 0 0 0 0 0 0 0 0 0 0 0 0 0 0 0 0 0 0 0 0 0 0 0 0 0 0 0 0
0 0 0 0 0 0 0 0 0 0 0 0 0 0 0 0 0 0 0 0 0 0 0 0 0 0 0 0 0 0 0 0 0 0 0 0 0 0 0 0 0 0 0
0 0 0 0 0 0 0 0 0 0 0 0 0 0 0 0 0 -0 -0 -0 0 0 0 0 0 0 0 0 0 0 0 0 0 0 0 0 0 0 0 0 0 0 0
0 0 0 0 0 0 0 0 -0 -0 -0 -0 -0 0 0 -0 -0 -0 -0 -0 -0 -0 -0 -0 -0 -0 0 0 0 0 0 0 0 0 0 0 0 0 0 0 0 0 0
0 0 0 0 0 0 0 -0 0 -0 0 0 0 -0 -0 -0 0 0 0 0 0 0 0 0 0 0 0 0 0 0 -0 -0 -0 -0 0 -0 -0 0 0 0 0 0 0
0 0 0 0 0 0 0 0 0 0 0 0 0 0 0 0 0 -0 0 0 0 0 0 0 0 0 0 -0 -0 -0 -0 -0 0 -0 -0 -0 -0 0 0 0 0 -0 -0
0 0 0 0 0 0 0 0 0 0 0 0 0 0 0 0 -0 -0 0 0 0 0 0 0 0 0 0 -0 0 0 0 0 0 0 -0 -0 -0 -0 -0 -0 0 -0 0
0 0 0 0 0 0 0 0 0 0 0 0 -0 -0 0 0 0 0 0 -0 -0 0 -0 -0 -0 -0 -0 0 0 0 0 0 0 0 0 0 -0 -0 -0 -0 -0 -0 -0
0 0 0 0 0 -0 -0 -0 -0 -0 -0 -0 -0 -0 -0 -0 -0 -0 -0 -0 -0 0 0 0 0 -0 -0 -0 -0 0 0 0 0 0 0 0 -0 0 0 -0 -0 -0 -0
0 0 0 0 0 0 -0 0 -0 0 0 0 0 0 0 0 -0 -0 -0 -0 -0 0 -0 0 -0 -0 -0 0 0 0 0 0 0 0 0 0 -0 0 0 0 0 0 0
0 0 0 0 -0 -0 0 0 0 0 0 0 0 0 0 0 -0 -0 -0 -0 -0 0 0 0 0 -0 0 0 0 0 0 0 0 0 0 0 0 0 -0 0 0 0 -0
-0 -0 -0 -0 -0 0 0 0 0 0 0 -0 -0 0 -0 -0 -0 0 0 0 0 0 0 0 -0 -0 0 0 0 0 0 0 0 0 0 0 -0 -0 0 0 0 0 0
0 0 0 0 0 0 -0 -0 -0 -0 0 0 0 0 -0 0 0 -0 0 0 0 0 0 0 0 0 0 0 0 0 0 0 0 0 -0 -0 -0 -0 -0 -0 0 0 0
0 0 0 0 -0 -0 -0 -0 -0 -0 -0 -0 -0 -0 0 -0 0 0 0 0 -0 -0 0 0 0 0 0 0 0 0 0 0 0 0 0 -0 -0 -0 -0 -0 -0 -0 0
0 0 0 0 -0 -0 -0 -0 0 0 0 0 0 0 0 0 0 0 -0 0 0 -0 0 0 -0 -0 -0 -0 0 0 0 0 0 0 0 0 -0 -0 -0 -0 -0 -0 0
0 0 0 0 0 0 -0 -0 -0 0 0 0 0 0 0 0 0 0 -0 0 0 0 -0 -0 -0 -0 -0 -0 0 0 0 0 0 0 0 0 -0 -0 -0 -0 -0 -0 0
0 0 0 0 0 0 0 0 0 0 0 0 0 0 0 0 0 0 0 0 0 0 0 0 -0 -0 -0 0 0 0 0 0 0 0 0 0 -0 -0 -0 0 0 -0 -0
0 0 0 0 0 0 0 0 0 0 0 0 0 0 0 0 0 0 0 0 0 0 0 0 0 0 0 0 0 0 0 0 0 0 -0 -0 -0 -0 0 -0 -0 -0 -0
0 0 0 0 0 0 0 0 0 0 0 0 0 0 0 0 0 0 0 0 0 0 0 0 0 0 0 0 0 0 0 0 0 -0 0 0 0 0 0 -0 -0 0 0
0 0 0 0 0 0 0 0 0 0 0 0 0 0 0 0 0 0 0 0 0 0 0 0 0 0 0 0 0 0 0 0 -0 0 0 0 0 0 0 0 0 0 0
0 0 0 0 0 0 0 0 0 0 0 0 0 0 0 0 0 0 0 0 0 0 0 0 0 0 0 0 0 0 0 0 0 0 0 0 0 0 0 0 0 0 0
0 0 0 0 0 0 0 0 0 0 0 0 0 0 0 0 0 0 0 0 0 0 0 0 0 0 0 0 0 0 0 0 0 0 0 0 0 0 0 0 0 0 0
0 0 0 0 0 0 0 0 0 0 0 0 0 0 0 0 0 0 0 0 0 0 0 0 0 0 0 0 0 0 0 0 0 0 0 0 0 0 0 0 0 0 0
0 0 0 0 0 0 0 0 0 0 0 0 0 0 0 0 0 0 0 0 0 0 0 0 0 0 0 0 0 0 0 0 0 0 0 0 0 0 0 0 0 0 0
Wind_Speed_500mb
43 44 46 44 44 44 43 44 44 44 44 48 51 56 53 51 50 42 38 42 44 49 48 44 35 39 55 55 60 47 51 53 59 47 49 49 47 39 25 20 19 20 19
51 51 48 47 46 45 46 44 38 37 40 40 43 44 51 51 43 43 42 41 45 50 40 44 53 70 62 52 52 48 43 39 43 47 38 32 23 18 18 17 16 15 16
53 52 50 47 48 47 44 43 36 31 28 33 35 32 33 35 39 33 31 31 30 31 36 47 52 49 46 36 35 29 29 29 24 19 21 16 14 17 18 18 16 21 21
52 48 44 41 41 39 36 34 31 28 30 35 26 23 20 17 20 30 27 28 33 36 41 47 47 40 34 34 27 22 18 14 9 6 8 10 13 14 18 18 17 20 20
48 44 38 36 34 32 32 30 24 25 29 31 27 23 13 13 17 25 27 31 31 34 32 30 28 20 13 13 12 9 5 7 7 10 11 11 12 15 21 25 24 22 21
44 40 35 33 35 31 32 32 29 29 28 30 28 28 27 25 27 28 30 31 25 22 22 23 19 18 16 11 15 15 14 8 10 7 11 11 15 20 22 21 19 21 20
43 39 34 32 30 30 31 30 28 30 25 24 24 25 25 25 27 25 19 15 14 16 19 10 4 12 21 17 15 13 13 13 15 16 14 15 17 22 24 20 22 19 19
41 39 38 32 31 31 31 29 29 25 22 27 28 26 25 24 21 15 9 4 7 17 14 17 18 17 20 17 8 8 12 13 16 18 18 21 25 27 25 21 19 21 17
37 37 35 34 32 32 33 32 29 30 31 33 37 48 52 49 39 31 36 35 38 32 30 24 22 20 14 15 11 16 16 11 11 14 21 20 24 27 25 21 13 18 19
32 33 31 32 32 33 33 34 36 42 46 45 40 41 40 45 39 41 42 38 46 39 32 23 19 20 25 24 20 18 19 14 11 9 16 19 23 29 30 28 9 15 21
27 27 30 29 30 34 37 34 31 37 41 47 52 55 56 54 53 50 45 39 36 31 28 27 28 28 27 25 23 23 24 15 5 6 13 18 23 28 25 20 23 21 18
25 28 34 37 40 41 49 53 52 48 44 44 44 42 41 38 35 35 33 29 27 25 28 31 32 29 26 26 23 21 18 18 6 20 20 25 29 27 25 26 23 20 21
26 33 39 41 53 50 45 44 45 44 41 39 41 45 45 39 34 33 35 34 31 29 31 31 29 28 30 34 31 27 24 22 24 23 27 27 26 27 26 19 19 23 23
55 55 52 47 43 41 42 42 41 41 45 48 47 46 44 47 43 33 31 28 28 26 27 32 39 38 34 29 28 30 29 29 26 26 25 24 24 24 22 24 26 25 21
47 43 41 39 40 41 45 46 47 46 44 44 43 42 37 40 40 38 35 35 30 28 28 32 37 39 41 39 36 35 31 30 35 32 29 27 24 28 22 25 25 22 28
41 40 39 39 40 41 41 41 42 41 39 40 40 39 39 38 33 34 37 35 30 27 31 35 37 37 37 36 37 36 35 39 38 38 29 27 30 28 29 27 22 23 26
37 37 36 35 35 36 36 34 36 35 35 40 43 42 38 31 27 30 32 28 32 36 35 35 36 36 36 36 34 34 35 36 35 35 35 33 31 29 29 29 22 24 22
28 28 32 31 32 33 33 32 28 29 32 38 41 41 39 38 34 32 29 32 37 41 37 36 36 35 35 36 37 37 35 37 35 31 33 34 32 32 30 26 24 26 24
24 25 25 27 28 28 29 29 28 28 26 26 26 34 37 34 34 37 41 44 40 39 36 37 37 37 36 35 37 38 37 40 39 35 33 36 31 30 28 25 29 27 24
16 21 24 26 27 27 27 28 28 29 29 31 35 36 32 31 36 40 42 42 39 38 37 36 38 37 36 37 39 40 40 41 42 39 36 42 33 29 27 28 28 26 25
10 15 20 24 28 30 28 28 27 26 27 31 34 36 34 33 33 36 38 41 42 43 44 41 37 39 40 40 40 41 43 44 44 41 46 39 36 30 30 26 25 22 20
15 16 18 21 25 25 25 26 23 22 23 23 27 31 32 33 33 35 39 42 44 47 49 49 44 45 44 45 49 49 45 48 47 43 44 42 39 33 30 25 26 22 17
12 13 15 20 22 19 22 22 19 20 21 23 24 27 30 31 33 36 39 42 44 47 50 52 52 51 48 46 48 52 54 59 50 44 47 46 45 35 30 28 22 24 20
11 12 14 15 14 15 17 19 20 22 20 19 24 26 28 28 30 33 35 38 41 46 49 53 55 54 51 49 49 52 55 59 55 44 51 46 50 40 26 29 25 22 20
11 11 13 13 14 13 17 17 17 17 16 18 21 23 23 23 25 28 30 33 37 41 45 50 53 55 54 50 49 51 52 56 55 45 45 47 53 42 34 31 26 22 21
9 11 12 13 13 12 13 13 14 14 13 16 19 21 20 19 20 23 26 29 33 36 41 45 49 51 55 55 52 51 54 54 56 46 45 52 57 47 31 37 30 27 27
Wind_Direction_500mb
328 323 322 319 317 315 311 308 302 297 295 291 283 272 270 270 274 275 275 274 276 286 281 279 275 297 298 299 298 290 289 283 284 292 293 298 300 305 311 313 314 310 300
331 330 328 327 327 325 320 319 314 309 307 302 304 298 277 271 280 281 284 284 285 281 283 287 294 306 302 298 295 296 284 281 278 290 298 309 309 322 338 339 341 350 353
336 333 332 332 334 336 339 336 327 326 331 330 317 303 307 278 274 288 287 290 293 293 298 306 308 306 297 296 300 291 289 291 284 293 302 312 336 344 342 354 357 348 350
342 339 335 335 339 340 348 350 343 340 329 339 343 332 314 305 273 286 292 295 286 299 303 294 298 301 297 299 308 314 323 309 306 352 345 354 360 4 354 349 342 341 337
346 348 348 348 349 351 355 354 349 348 349 348 348 351 347 319 303 302 303 303 291 293 298 299 301 286 311 323 298 323 356 13 1 4 348 351 350 343 345 337 332 333 331
356 356 356 9 4 5 4 3 358 350 346 345 344 338 335 320 309 303 298 296 301 303 306 298 263 265 305 38 27 41 7 359 9 37 19 9 3 7 8 358 357 352 343
7 6 0 -0 1 4 2 1 1 4 7 3 356 347 338 325 313 306 301 307 309 301 287 246 310 47 69 77 69 64 59 68 64 56 35 21 9 2 359 350 346 349 341
13 15 10 10 18 14 13 20 22 11 12 13 14 14 19 15 11 11 9 38 114 103 71 69 67 62 47 27 45 78 57 33 32 27 16 9 4 352 342 341 343 351 343
6 6 17 21 20 19 30 35 38 47 51 53 60 68 59 50 50 68 92 89 86 79 61 61 41 32 36 7 352 335 330 325 344 359 3 2 2 358 346 335 337 342 350
14 13 18 28 40 47 50 56 61 69 74 74 68 57 56 60 84 86 76 70 71 59 51 45 30 15 13 12 355 331 321 283 287 338 8 1 360 359 350 344 358 350 355
20 30 39 48 56 62 68 62 62 69 67 65 67 68 71 71 71 66 61 56 56 52 52 42 28 10 355 345 337 334 338 327 234 317 20 359 358 350 349 348 360 9 3
39 47 61 69 73 73 76 76 76 76 81 68 64 60 60 57 52 49 47 47 47 54 45 26 13 7 9 12 14 13 32 82 65 8 6 357 352 349 348 353 351 352 346
57 72 79 79 90 82 73 71 72 73 67 57 56 58 57 55 53 48 47 45 41 41 41 41 36 37 49 54 53 56 59 37 21 2 348 345 347 345 347 350 344 344 343
87 93 88 81 76 71 71 70 66 62 65 66 61 55 55 54 53 49 46 44 41 44 48 42 38 42 43 41 35 29 24 19 13 6 357 350 353 353 357 353 351 359 350
78 76 74 73 71 71 70 69 67 63 60 59 55 53 50 47 44 39 35 37 41 49 50 43 42 42 41 39 36 32 26 24 16 4 1 359 358 359 1 358 2 349 357
73 68 67 70 73 71 68 65 63 59 56 52 48 45 44 42 37 31 29 31 51 53 47 42 38 33 30 27 25 24 18 17 14 12 6 1 1 359 358 355 2 357 355
70 64 64 64 66 66 62 62 58 56 50 47 41 38 38 35 30 31 31 40 55 56 49 40 34 30 26 23 18 14 10 6 1 5 6 6 1 359 358 1 8 10 358
57 58 58 61 61 57 56 53 52 47 41 38 38 38 43 45 46 48 54 58 49 46 42 36 30 25 22 20 17 12 10 5 5 2 356 3 0 1 3 6 6 3 1
42 49 55 58 56 47 43 41 40 37 38 41 43 45 45 49 52 53 51 51 46 41 36 33 31 27 23 19 15 11 8 5 5 4 360 358 1 358 4 8 7 9 8
47 56 61 55 46 41 41 43 48 49 51 53 52 50 46 43 45 44 45 45 41 37 31 27 25 21 16 14 12 11 9 6 4 5 359 3 10 12 10 1 357 3 359
83 71 64 55 45 42 45 46 47 49 50 50 48 44 40 43 42 41 40 39 38 34 30 24 17 18 17 15 13 11 10 7 5 4 5 13 14 14 4 8 4 6 3
83 74 60 43 32 34 40 45 49 49 48 45 40 38 38 42 44 44 45 44 41 37 32 29 25 21 18 18 19 16 11 7 6 6 14 11 11 11 11 13 22 28 37
30 34 28 20 22 34 38 44 48 47 44 42 40 38 41 46 49 50 48 46 41 38 35 32 30 27 25 25 22 20 14 11 8 7 12 10 9 19 24 29 33 40 57
351 354 359 12 33 43 43 43 42 40 40 37 35 38 42 48 49 46 45 41 38 35 34 33 32 29 28 27 25 22 17 14 17 19 14 23 25 17 24 28 34 46 68
51 52 53 53 48 46 40 37 34 33 31 30 30 32 37 42 41 39 38 36 33 32 31 31 29 29 29 27 26 24 20 19 19 21 24 23 20 22 34 37 38 57 69
44 55 59 55 47 39 32 24 22 22 19 21 24 27 31 34 34 33 32 30 30 30 30 30 30 29 29 28 26 25 23 23 24 27 31 25 21 31 44 37 49 67 78
Wind_Speed_850mb
43 44 46 44 44 44 43 44 44 44 44 48 51 56 53 51 50 42 38 42 44 49 48 44 35 39 55 55 60 47 51 53 59 47 49 49 47 39 25 20 19 20 19
51 51 48 47 46 45 46 44 38 37 40 40 43 44 51 51 43 43 42 41 45 50 40 44 53 70 62 52 52 48 43 39 43 47 38 32 23 18 18 17 16 15 16
53 52 50 47 48 47 44 43 36 31 28 33 35 32 33 35 39 33 31 31 30 31 36 47 52 49 46 36 35 29 29 29 24 19 21 16 14 17 18 18 16 21 21
52 48 44 41 41 39 36 34 31 28 30 35 26 23 20 17 20 30 27 28 33 36 41 47 47 40 34 34 27 22 18 14 9 6 8 10 13 14 18 18 17 20 20
48 44 38 36 34 32 32 30 24 25 29 31 27 23 13 13 17 25 27 31 31 34 32 30 28 20 13 13 12 9 5 7 7 10 11 11 12 15 21 25 24 22 21
44 40 35 33 35 31 32 32 29 29 28 30 28 28 27 25 27 28 30 31 25 22 22 23 19 18 16 11 15 15 14 8 10 7 11 11 15 20 22 21 19 21 20
43 39 34 32 30 30 31 30 28 30 25 24 24 25 25 25 27 25 19 15 14 16 19 10 4 12 21 17 15 13 13 13 15 16 14 15 17 22 24 20 22 19 19
41 39 38 32 31 31 31 29 29 25 22 27 28 26 25 24 21 15 9 4 7 17 14 17 18 17 20 17 8 8 12 13 16 18 18 21 25 27 25 21 19 21 17
37 37 35 34 32 32 33 32 29 30 31 33 37 48 52 49 39 31 36 35 38 32 30 24 22 20 14 15 11 16 16 11 11 14 21 20 24 27 25 21 13 18 19
32 33 31 32 32 33 33 34 36 42 46 45 40 41 40 45 39 41 42 38 46 39 32 23 19 20 25 24 20 18 19 14 11 9 16 19 23 29 30 28 9 15 21
27 27 30 29 30 34 37 34 31 37 41 47 52 55 56 54 53 50 45 39 36 31 28 27 28 28 27 25 23 23 24 15 5 6 13 18 23 28 25 20 23 21 18
25 28 34 37 40 41 49 53 52 48 44 44 44 42 41 38 35 35 33 29 27 25 28 31 32 29 26 26 23 21 18 18 6 20 20 25 29 27 25 26 23 20 21
26 33 39 41 53 50 45 44 45 44 41 39 41 45 45 39 34 33 35 34 31 29 31 31 29 28 30 34 31 27 24 22 24 23 27 27 26 27 26 19 19 23 23
55 55 52 47 43 41 42 42 41 41 45 48 47 46 44 47 43 33 31 28 28 26 27 32 39 38 34 29 28 30 29 29 26 26 25 24 24 24 22 24 26 25 21
47 43 41 39 40 41 45 46 47 46 44 44 43 42 37 40 40 38 35 35 30 28 28 32 37 39 41 39 36 35 31 30 35 32 29 27 24 28 22 25 25 22 28
41 40 39 39 40 41 41 41 42 41 39 40 40 39 39 38 33 34 37 35 30 27 31 35 37 37 37 36 37 36 35 39 38 38 29 27 30 28 29 27 22 23 26
37 37 36 35 35 36 36 34 36 35 35 40 43 42 38 31 27 30 32 28 32 36 35 35 36 36 36 36 34 34 35 36 35 35 35 33 31 29 29 29 22 24 22
28 28 32 31 32 33 33 32 28 29 32 38 41 41 39 38 34 32 29 32 37 41 37 36 36 35 35 36 37 37 35 37 35 31 33 34 32 32 30 26 24 26 24
24 25 25 27 28 28 29 29 28 28 26 26 26 34 37 34 34 37 41 44 40 39 36 37 37 37 36 35 37 38 37 40 39 35 33 36 31 30 28 25 29 27 24
16 21 24 26 27 27 27 28 28 29 29 31 35 36 32 31 36 40 42 42 39 38 37 36 38 37 36 37 39 40 40 41 42 39 36 42 33 29 27 28 28 26 25
10 15 20 24 28 30 28 28 27 26 27 31 34 36 34 33 33 36 38 41 42 43 44 41 37 39 40 40 40 41 43 44 44 41 46 39 36 30 30 26 25 22 20
15 16 18 21 25 25 25 26 23 22 23 23 27 31 32 33 33 35 39 42 44 47 49 49 44 45 44 45 49 49 45 48 47 43 44 42 39 33 30 25 26 22 17
12 13 15 20 22 19 22 22 19 20 21 23 24 27 30 31 33 36 39 42 44 47 50 52 52 51 48 46 48 52 54 59 50 44 47 46 45 35 30 28 22 24 20
11 12 14 15 14 15 17 19 20 22 20 19 24 26 28 28 30 33 35 38 41 46 49 53 55 54 51 49 49 52 55 59 55 44 51 46 50 40 26 29 25 22 20
11 11 13 13 14 13 17 17 17 17 16 18 21 23 23 23 25 28 30 33 37 41 45 50 53 55 54 50 49 51 52 56 55 45 45 47 53 42 34 31 26 22 21
9 11 12 13 13 12 13 13 14 14 13 16 19 21 20 19 20 23 26 29 33 36 41 45 49 51 55 55 52 51 54 54 56 46 45 52 57 47 31 37 30 27 27
Wind_Direction_850mb
328 323 322 319 317 315 311 308 302 297 295 291 283 272 270 270 274 275 275 274 276 286 281 279 275 297 298 299 298 290 289 283 284 292 293 298 300 305 311 313 314 310 300
331 330 328 327 327 325 320 319 314 309 307 302 304 298 277 271 280 281 284 284 285 281 283 287 294 306 302 298 295 296 284 281 278 290 298 309 309 322 338 339 341 350 353
336 333 332 332 334 336 339 336 327 326 331 330 317 303 307 278 274 288 287 290 293 293 298 306 308 306 297 296 300 291 289 291 284 293 302 312 336 344 342 354 357 348 350
342 339 335 335 339 340 348 350 343 340 329 339 343 332 314 305 273 286 292 295 286 299 303 294 298 301 297 299 308 314 323 309 306 352 345 354 360 4 354 349 342 341 337
346 348 348 348 349 351 355 354 349 348 349 348 348 351 347 319 303 302 303 303 291 293 298 299 301 286 311 323 298 323 356 13 1 4 348 351 350 343 345 337 332 333 331
356 356 356 9 4 5 4 3 358 350 346 345 344 338 335 320 309 303 298 296 301 303 306 298 263 265 305 38 27 41 7 359 9 37 19 9 3 7 8 358 357 352 343
7 6 0 -0 1 4 2 1 1 4 7 3 356 347 338 325 313 306 301 307 309 301 287 246 310 47 69 77 69 64 59 68 64 56 35 21 9 2 359 350 346 349 341
13 15 10 10 18 14 13 20 22 11 12 13 14 14 19 15 11 11 9 38 114 103 71 69 67 62 47 27 45 78 57 33 32 27 16 9 4 352 342 341 343 351 343
6 6 17 21 20 19 30 35 38 47 51 53 60 68 59 50 50 68 92 89 86 79 61 61 41 32 36 7 352 335 330 325 344 359 3 2 2 358 346 335 337 342 350
14 13 18 28 40 47 50 56 61 69 74 74 68 57 56 60 84 86 76 70 71 59 51 45 30 15 13 12 355 331 321 283 287 338 8 1 360 359 350 344 358 350 355
20 30 39 48 56 62 68 62 62 69 67 65 67 68 71 71 71 66 61 56 56 52 52 42 28 10 355 345 337 334 338 327 234 317 20 359 358 350 349 348 360 9 3
39 47 61 69 73 73 76 76 76 76 81 68 64 60 60 57 52 49 47 47 47 54 45 26 13 7 9 12 14 13 32 82 65 8 6 357 352 349 348 353 351 352 346
57 72 79 79 90 82 73 71 72 73 67 57 56 58 57 55 53 48 47 45 41 41 41 41 36 37 49 54 53 56 59 37 21 2 348 345 347 345 347 350 344 344 343
87 93 88 81 76 71 71 70 66 62 65 66 61 55 55 54 53 49 46 44 41 44 48 42 38 42 43 41 35 29 24 19 13 6 357 350 353 353 357 353 351 359 350
78 76 74 73 71 71 70 69 67 63 60 59 55 53 50 47 44 39 35 37 41 49 50 43 42 42 41 39 36 32 26 24 16 4 1 359 358 359 1 358 2 349 357
73 68 67 70 73 71 68 65 63 59 56 52 48 45 44 42 37 31 29 31 51 53 47 42 38 33 30 27 25 24 18 17 14 12 6 1 1 359 358 355 2 357 355
70 64 64 64 66 66 62 62 58 56 50 47 41 38 38 35 30 31 31 40 55 56 49 40 34 30 26 23 18 14 10 6 1 5 6 6 1 359 358 1 8 10 358
57 58 58 61 61 57 56 53 52 47 41 38 38 38 43 45 46 48 54 58 49 46 42 36 30 25 22 20 17 12 10 5 5 2 356 3 0 1 3 6 6 3 1
42 49 55 58 56 47 43 41 40 37 38 41 43 45 45 49 52 53 51 51 46 41 36 33 31 27 23 19 15 11 8 5 5 4 360 358 1 358 4 8 7 9 8
47 56 61 55 46 41 41 43 48 49 51 53 52 50 46 43 45 44 45 45 41 37 31 27 25 21 16 14 12 11 9 6 4 5 359 3 10 12 10 1 357 3 359
83 71 64 55 45 42 45 46 47 49 50 50 48 44 40 43 42 41 40 39 38 34 30 24 17 18 17 15 13 11 10 7 5 4 5 13 14 14 4 8 4 6 3
83 74 60 43 32 34 40 45 49 49 48 45 40 38 38 42 44 44 45 44 41 37 32 29 25 21 18 18 19 16 11 7 6 6 14 11 11 11 11 13 22 28 37
30 34 28 20 22 34 38 44 48 47 44 42 40 38 41 46 49 50 48 46 41 38 35 32 30 27 25 25 22 20 14 11 8 7 12 10 9 19 24 29 33 40 57
351 354 359 12 33 43 43 43 42 40 40 37 35 38 42 48 49 46 45 41 38 35 34 33 32 29 28 27 25 22 17 14 17 19 14 23 25 17 24 28 34 46 68
51 52 53 53 48 46 40 37 34 33 31 30 30 32 37 42 41 39 38 36 33 32 31 31 29 29 29 27 26 24 20 19 19 21 24 23 20 22 34 37 38 57 69
44 55 59 55 47 39 32 24 22 22 19 21 24 27 31 34 34 33 32 30 30 30 30 30 30 29 29 28 26 25 23 23 24 27 31 25 21 31 44 37 49 67 78